Location: Unspecified
(0.0000°N, 0.0000°E)
Time: 07:16:18
(UTC+00:00)

Vanguard 2 Rocket - Pass Details

Date: 08 October 2023
Orbit: 552 x 3312 km, 32.9° (Epoch: 06 December)

Event Time Altitude Azimuth Distance (km) Brightness Sun altitude
Rises 05:43:02 0° 260° (W) 3,312 - -1.2°
Exits shadow 05:43:03 - 260° (W) 3,307 9.1 -1.2°
Reaches altitude 10° 05:45:17 10° 270° (W) 2,607 8.6 -0.6°
Maximum altitude 05:51:00 35° 335° (NNW) 1,918 8.4 0.8°
Drops below altitude 10° 06:00:20 10° 37° (NE) 4,290 10.8 3.1°
Sets 06:05:16 0° 44° (NE) 5,792 11.6 4.4°
